Tracking 29892 objects as of 21-Nov-2024
HD Live streaming from Space Station
objects crossing your sky now

OBJECT B

Track OBJECT B now!
10-day predictions


NORAD ID: 60089
Int'l Code: 2024-116B
Perigee: 629.9 km
Apogee: 637.5 km
Inclination: 29.0 °
Period: 97.2 minutes
Semi major axis: 7004 km
RCS: Unknown
Launch date: June 22, 2024
Source: People's Republic of China (PRC)
Launch site: Xichang Space Center, China (XSC)

Note: This is a ROCKET BODY
Your satellite tracking list
Your tracking list is empty




NASA's NSSDC Master Catalog

Two Line Element Set (TLE):
1 60089U 24116B   24325.93247007  .00002759  00000-0  33412-3 0  9994
2 60089  28.9940 134.2154 0005399 321.5783  38.4425 14.80873647 22459
Source of the keplerian elements: AFSPC